If you wish to contribute or participate in the discussions about articles you are invited to join SKYbrary as a registered user

La Gomera

From SKYbrary Wiki
GCGM
Revision as of 19:01, 28 November 2011 by Timo.Kouwenhoven (Talk | contribs)

(diff) ← Older revision | Latest revision (diff) | Newer revision → (diff)
Airport
ICAO: GCGM
Summary
Name La Gomera
Region Europe
Territory Canary Islands ES.gif
Location San Sebastián de la Gomera
Serving
Coordinates 28° 1' 50.407", -17° 12' 45.0731"
Close to Canarias Sea
Runways
Designator Length Width Surface ROPS
9/27 1500 m4,921.26 ft 30 m98.425 ft ASP /
METAR
Observation GCGM 261130Z 23008KT 200V260 9999 FEW009 BKN024 23/18 Q1013 RMK R09/VRB06KT ARP/22008KT 170V280
Station La Gomera
Date/Time 26 April 2017 11:30:00
Wind direction 230°
Wind speed 08 kts
Lowest cloud amount few clouds
Temperature 23°C
Dew point 18°C
Humidity 73%
QNH 1013 hPa
Weather condition n/a

WX
Tag(s) Volcanic Ash

La Gomera Airport (IATA: GMZ) is an airport located near the village of Alajeró, Spain, 34 km18.359 nm
34,000 m
111,548.557 ft
southwest by road from the Gomera island's capital city, San Sebastián de la Gomera.